contact:dominique.lefevre@mio.osupytheas.fr, maurice.libes@osupytheas.fr, didier.mallarino@osupytheas.fr
Project:EMSO http://www.emso-fr.org/EMSO-France
Depth: 2436.0 m
Title:EMSO Ligure Ouest : Data MII capteur MICROCAT
DateTime_Computer,Latitude,Longitude,Temperature,Conductivity,Pressure,DateTime_Instrument
DateTime_Computer,Latitude,Longitude,degC,S m-1,dbar,DateTime_Instrument
2020-06-20T00:02:11Z,42.805,6.029,13.2971,4.59973,2470.11,2020-6-20T02:02:56Z
2020-06-20T00:05:15Z,42.805,6.029,13.2968,4.59973,2470.11,2020-6-20T02:05:59Z
2020-06-20T00:08:18Z,42.805,6.029,13.2971,4.59972,2470.11,2020-6-20T02:09:03Z
2020-06-20T00:11:21Z,42.805,6.029,13.2969,4.59973,2470.077,2020-6-20T02:12:06Z
2020-06-20T00:14:24Z,42.805,6.029,13.2968,4.59973,2470.087,2020-6-20T02:15:09Z
2020-06-20T00:17:28Z,42.805,6.029,13.2970,4.59972,2470.11,2020-6-20T02:18:12Z
2020-06-20T00:20:31Z,42.805,6.029,13.2968,4.59973,2470.11,2020-6-20T02:21:16Z
2020-06-20T00:23:34Z,42.805,6.029,13.2971,4.59973,2470.1,2020-6-20T02:24:19Z
2020-06-20T00:26:37Z,42.805,6.029,13.2968,4.59971,2470.11,2020-6-20T02:27:22Z
2020-06-20T00:29:41Z,42.805,6.029,13.2966,4.59973,2470.1,2020-6-20T02:30:25Z
2020-06-20T00:32:44Z,42.805,6.029,13.2968,4.59973,2470.11,2020-6-20T02:33:29Z
2020-06-20T00:35:47Z,42.805,6.029,13.2967,4.59973,2470.087,2020-6-20T02:36:32Z
2020-06-20T00:38:50Z,42.805,6.029,13.2968,4.59972,2470.11,2020-6-20T02:39:35Z
2020-06-20T00:41:54Z,42.805,6.029,13.2971,4.59973,2470.124,2020-6-20T02:42:38Z
2020-06-20T00:44:57Z,42.805,6.029,13.2971,4.59974,2470.1,2020-6-20T02:45:42Z
2020-06-20T00:48:00Z,42.805,6.029,13.2971,4.59973,2470.133,2020-6-20T02:48:45Z
2020-06-20T00:51:04Z,42.805,6.029,13.2968,4.59973,2470.1,2020-6-20T02:51:48Z
2020-06-20T00:54:07Z,42.805,6.029,13.2971,4.59973,2470.087,2020-6-20T02:54:52Z
2020-06-20T00:57:10Z,42.805,6.029,13.2967,4.59973,2470.063,2020-6-20T02:57:55Z
2020-06-20T01:00:14Z,42.805,6.029,13.2969,4.59973,2470.124,2020-6-20T03:00:58Z
2020-06-20T01:03:17Z,42.805,6.029,13.2972,4.59972,2470.1,2020-6-20T03:04:02Z
2020-06-20T01:06:20Z,42.805,6.029,13.2971,4.59971,2470.077,2020-6-20T03:07:05Z
2020-06-20T01:09:23Z,42.805,6.029,13.2968,4.59973,2470.11,2020-6-20T03:10:08Z
2020-06-20T01:12:27Z,42.805,6.029,13.2970,4.59973,2470.11,2020-6-20T03:13:11Z
2020-06-20T01:15:30Z,42.805,6.029,13.2969,4.59972,2470.087,2020-6-20T03:16:15Z
2020-06-20T01:18:33Z,42.805,6.029,13.2969,4.59973,2470.087,2020-6-20T03:19:18Z
2020-06-20T01:21:36Z,42.805,6.029,13.2969,4.59972,2470.087,2020-6-20T03:22:21Z
2020-06-20T01:24:40Z,42.805,6.029,13.2973,4.59973,2470.063,2020-6-20T03:25:24Z
2020-06-20T01:27:43Z,42.805,6.029,13.2971,4.59974,2470.11,2020-6-20T03:28:28Z
2020-06-20T01:30:46Z,42.805,6.029,13.2970,4.59974,2470.049,2020-6-20T03:31:31Z
2020-06-20T01:33:49Z,42.805,6.029,13.2970,4.59972,2470.087,2020-6-20T03:34:34Z
2020-06-20T01:36:53Z,42.805,6.029,13.2968,4.59973,2470.077,2020-6-20T03:37:37Z
2020-06-20T01:39:56Z,42.805,6.029,13.2968,4.59972,2470.1,2020-6-20T03:40:40Z
2020-06-20T01:42:59Z,42.805,6.029,13.2970,4.59972,2470.063,2020-6-20T03:43:44Z
2020-06-20T01:46:02Z,42.805,6.029,13.2972,4.59975,2470.087,2020-6-20T03:46:47Z
2020-06-20T01:49:06Z,42.805,6.029,13.2971,4.59973,2470.1,2020-6-20T03:49:50Z
2020-06-20T01:52:09Z,42.805,6.029,13.2971,4.59972,2470.077,2020-6-20T03:52:54Z
2020-06-20T01:55:12Z,42.805,6.029,13.2971,4.59971,2470.1,2020-6-20T03:55:57Z
2020-06-20T01:58:15Z,42.805,6.029,13.2970,4.59974,2470.073,2020-6-20T03:59:00Z
2020-06-20T02:01:19Z,42.805,6.029,13.2967,4.59973,2470.087,2020-6-20T04:02:03Z
2020-06-20T02:04:22Z,42.805,6.029,13.2968,4.59973,2470.087,2020-6-20T04:05:07Z
2020-06-20T02:07:25Z,42.805,6.029,13.2970,4.59973,2470.087,2020-6-20T04:08:10Z
2020-06-20T02:10:28Z,42.805,6.029,13.2972,4.59973,2470.087,2020-6-20T04:11:13Z
2020-06-20T02:13:32Z,42.805,6.029,13.2969,4.59972,2470.087,2020-6-20T04:14:16Z
2020-06-20T02:16:35Z,42.805,6.029,13.2967,4.59973,2470.087,2020-6-20T04:17:20Z
2020-06-20T02:19:38Z,42.805,6.029,13.2972,4.59971,2470.087,2020-6-20T04:20:23Z
2020-06-20T02:22:41Z,42.805,6.029,13.2970,4.59974,2470.1,2020-6-20T04:23:26Z
2020-06-20T02:25:45Z,42.805,6.029,13.2968,4.59973,2470.11,2020-6-20T04:26:29Z
2020-06-20T02:28:48Z,42.805,6.029,13.2967,4.59973,2470.1,2020-6-20T04:29:33Z
2020-06-20T02:31:51Z,42.805,6.029,13.2971,4.59972,2470.11,2020-6-20T04:32:36Z
2020-06-20T02:34:55Z,42.805,6.029,13.2969,4.59973,2470.11,2020-6-20T04:35:39Z
2020-06-20T02:37:58Z,42.805,6.029,13.2971,4.59972,2470.11,2020-6-20T04:38:43Z
2020-06-20T02:41:01Z,42.805,6.029,13.2971,4.59972,2470.087,2020-6-20T04:41:46Z
2020-06-20T02:44:04Z,42.805,6.029,13.2971,4.59971,2470.1,2020-6-20T04:44:49Z
2020-06-20T02:47:08Z,42.805,6.029,13.2968,4.59971,2470.087,2020-6-20T04:47:52Z
2020-06-20T02:50:11Z,42.805,6.029,13.2968,4.59973,2470.171,2020-6-20T04:50:56Z
2020-06-20T02:53:14Z,42.805,6.029,13.2967,4.59973,2470.124,2020-6-20T04:53:59Z
2020-06-20T02:56:18Z,42.805,6.029,13.2973,4.59973,2470.11,2020-6-20T04:57:02Z
2020-06-20T02:59:21Z,42.805,6.029,13.2968,4.59973,2470.063,2020-6-20T05:00:06Z
2020-06-20T03:02:24Z,42.805,6.029,13.2971,4.59971,2470.1,2020-6-20T05:03:09Z
2020-06-20T03:05:27Z,42.805,6.029,13.2971,4.59972,2470.133,2020-6-20T05:06:12Z
2020-06-20T03:08:31Z,42.805,6.029,13.2970,4.59973,2470.124,2020-6-20T05:09:15Z
2020-06-20T03:11:34Z,42.805,6.029,13.2972,4.59971,2470.1,2020-6-20T05:12:19Z
2020-06-20T03:14:37Z,42.805,6.029,13.2971,4.59972,2470.11,2020-6-20T05:15:22Z
2020-06-20T03:17:40Z,42.805,6.029,13.2971,4.59971,2470.11,2020-6-20T05:18:25Z
2020-06-20T03:20:44Z,42.805,6.029,13.2974,4.59972,2470.133,2020-6-20T05:21:28Z
2020-06-20T03:23:47Z,42.805,6.029,13.2971,4.59971,2470.11,2020-6-20T05:24:32Z
2020-06-20T03:26:50Z,42.805,6.029,13.2968,4.59972,2470.124,2020-6-20T05:27:35Z
2020-06-20T03:29:53Z,42.805,6.029,13.2971,4.59972,2470.133,2020-6-20T05:30:38Z
2020-06-20T03:32:57Z,42.805,6.029,13.2967,4.59971,2470.11,2020-6-20T05:33:41Z
2020-06-20T03:36:00Z,42.805,6.029,13.2970,4.59973,2470.133,2020-6-20T05:36:45Z
2020-06-20T03:39:03Z,42.805,6.029,13.2968,4.59972,2470.147,2020-6-20T05:39:48Z
2020-06-20T03:42:06Z,42.805,6.029,13.2970,4.59972,2470.171,2020-6-20T05:42:51Z
2020-06-20T03:45:09Z,42.805,6.029,13.2969,4.59972,2470.119,2020-6-20T05:45:54Z
2020-06-20T03:48:13Z,42.805,6.029,13.2973,4.59972,2470.124,2020-6-20T05:48:57Z
2020-06-20T03:51:16Z,42.805,6.029,13.2970,4.59972,2470.133,2020-6-20T05:52:01Z
2020-06-20T03:54:19Z,42.805,6.029,13.2974,4.59972,2470.133,2020-6-20T05:55:04Z
2020-06-20T03:57:22Z,42.805,6.029,13.2970,4.59973,2470.156,2020-6-20T05:58:07Z
2020-06-20T04:00:26Z,42.805,6.029,13.2968,4.59972,2470.156,2020-6-20T06:01:11Z
2020-06-20T04:03:29Z,42.805,6.029,13.2973,4.59972,2470.11,2020-6-20T06:04:14Z
2020-06-20T04:06:33Z,42.805,6.029,13.2969,4.59971,2470.133,2020-6-20T06:07:17Z
2020-06-20T04:09:36Z,42.805,6.029,13.2971,4.59972,2470.133,2020-6-20T06:10:21Z
2020-06-20T04:12:39Z,42.805,6.029,13.2968,4.59971,2470.171,2020-6-20T06:13:24Z
2020-06-20T04:15:42Z,42.805,6.029,13.2970,4.59971,2470.171,2020-6-20T06:16:27Z
2020-06-20T04:18:46Z,42.805,6.029,13.2971,4.59971,2470.156,2020-6-20T06:19:30Z
2020-06-20T04:21:49Z,42.805,6.029,13.2967,4.59971,2470.133,2020-6-20T06:22:34Z
2020-06-20T04:24:52Z,42.805,6.029,13.2972,4.59972,2470.133,2020-6-20T06:25:37Z
2020-06-20T04:27:55Z,42.805,6.029,13.2967,4.59970,2470.171,2020-6-20T06:28:40Z
2020-06-20T04:30:58Z,42.805,6.029,13.2971,4.59971,2470.156,2020-6-20T06:31:43Z
2020-06-20T04:34:02Z,42.805,6.029,13.2968,4.59973,2470.194,2020-6-20T06:34:47Z
2020-06-20T04:37:05Z,42.805,6.029,13.2967,4.59971,2470.18,2020-6-20T06:37:50Z
2020-06-20T04:40:08Z,42.805,6.029,13.2968,4.59971,2470.119,2020-6-20T06:40:53Z
2020-06-20T04:43:12Z,42.805,6.029,13.2967,4.59971,2470.194,2020-6-20T06:43:56Z
2020-06-20T04:46:15Z,42.805,6.029,13.2968,4.59971,2470.156,2020-6-20T06:47:00Z
2020-06-20T04:49:18Z,42.805,6.029,13.2969,4.59972,2470.171,2020-6-20T06:50:03Z
2020-06-20T04:52:21Z,42.805,6.029,13.2968,4.59972,2470.194,2020-6-20T06:53:06Z
2020-06-20T04:55:24Z,42.805,6.029,13.2966,4.59971,2470.171,2020-6-20T06:56:09Z
2020-06-20T04:58:28Z,42.805,6.029,13.2968,4.59971,2470.203,2020-6-20T06:59:12Z
2020-06-20T05:01:31Z,42.805,6.029,13.2969,4.59971,2470.171,2020-6-20T07:02:16Z
2020-06-20T05:04:34Z,42.805,6.029,13.2973,4.59971,2470.18,2020-6-20T07:05:19Z
2020-06-20T05:07:38Z,42.805,6.029,13.2969,4.59970,2470.156,2020-6-20T07:08:22Z
2020-06-20T05:10:41Z,42.805,6.029,13.2972,4.59971,2470.203,2020-6-20T07:11:26Z
2020-06-20T05:13:44Z,42.805,6.029,13.2970,4.59971,2470.18,2020-6-20T07:14:29Z
2020-06-20T05:16:47Z,42.805,6.029,13.2968,4.59972,2470.156,2020-6-20T07:17:32Z
2020-06-20T05:19:50Z,42.805,6.029,13.2964,4.59971,2470.156,2020-6-20T07:20:35Z
2020-06-20T05:22:54Z,42.805,6.029,13.2971,4.59971,2470.171,2020-6-20T07:23:39Z
2020-06-20T05:25:57Z,42.805,6.029,13.2968,4.59971,2470.18,2020-6-20T07:26:42Z
2020-06-20T05:29:00Z,42.805,6.029,13.2970,4.59973,2470.156,2020-6-20T07:29:45Z
2020-06-20T05:32:03Z,42.805,6.029,13.2967,4.59972,2470.203,2020-6-20T07:32:48Z
2020-06-20T05:35:07Z,42.805,6.029,13.2970,4.59971,2470.171,2020-6-20T07:35:51Z
2020-06-20T05:38:10Z,42.805,6.029,13.2969,4.59972,2470.156,2020-6-20T07:38:55Z
2020-06-20T05:41:13Z,42.805,6.029,13.2968,4.59972,2470.217,2020-6-20T07:41:58Z
2020-06-20T05:44:16Z,42.805,6.029,13.2967,4.59971,2470.217,2020-6-20T07:45:01Z
2020-06-20T05:47:20Z,42.805,6.029,13.2970,4.59971,2470.203,2020-6-20T07:48:04Z
2020-06-20T05:50:23Z,42.805,6.029,13.2969,4.59971,2470.189,2020-6-20T07:51:08Z
2020-06-20T05:53:26Z,42.805,6.029,13.2970,4.59971,2470.18,2020-6-20T07:54:11Z
2020-06-20T05:56:29Z,42.805,6.029,13.2970,4.59971,2470.133,2020-6-20T07:57:14Z
2020-06-20T05:59:33Z,42.805,6.029,13.2968,4.59973,2470.18,2020-6-20T08:00:17Z
2020-06-20T06:02:36Z,42.805,6.029,13.2973,4.59974,2470.18,2020-6-20T08:03:21Z
2020-06-20T06:05:39Z,42.805,6.029,13.2971,4.59971,2470.18,2020-6-20T08:06:24Z
2020-06-20T06:08:42Z,42.805,6.029,13.2968,4.59972,2470.18,2020-6-20T08:09:27Z
2020-06-20T06:11:46Z,42.805,6.029,13.2971,4.59972,2470.18,2020-6-20T08:12:30Z
2020-06-20T06:14:49Z,42.805,6.029,13.2970,4.59971,2470.194,2020-6-20T08:15:34Z
2020-06-20T06:17:52Z,42.805,6.029,13.2968,4.59972,2470.203,2020-6-20T08:18:37Z
2020-06-20T06:20:55Z,42.805,6.029,13.2967,4.59971,2470.18,2020-6-20T08:21:40Z
2020-06-20T06:23:59Z,42.805,6.029,13.2969,4.59971,2470.203,2020-6-20T08:24:44Z
2020-06-20T06:27:02Z,42.805,6.029,13.2971,4.59972,2470.194,2020-6-20T08:27:47Z
2020-06-20T06:30:05Z,42.805,6.029,13.2971,4.59973,2470.194,2020-6-20T08:30:50Z
2020-06-20T06:33:09Z,42.805,6.029,13.2968,4.59971,2470.156,2020-6-20T08:33:53Z
2020-06-20T06:36:12Z,42.805,6.029,13.2970,4.59972,2470.18,2020-6-20T08:36:57Z
2020-06-20T06:39:15Z,42.805,6.029,13.2968,4.59971,2470.194,2020-6-20T08:40:00Z
2020-06-20T06:42:18Z,42.805,6.029,13.2967,4.59970,2470.171,2020-6-20T08:43:03Z
2020-06-20T06:45:22Z,42.805,6.029,13.2970,4.59970,2470.217,2020-6-20T08:46:06Z
2020-06-20T06:48:25Z,42.805,6.029,13.2969,4.59972,2470.156,2020-6-20T08:49:10Z
2020-06-20T06:51:28Z,42.805,6.029,13.2970,4.59971,2470.18,2020-6-20T08:52:13Z
2020-06-20T06:54:31Z,42.805,6.029,13.2971,4.59972,2470.156,2020-6-20T08:55:16Z
2020-06-20T06:57:35Z,42.805,6.029,13.2967,4.59971,2470.227,2020-6-20T08:58:19Z
2020-06-20T07:00:38Z,42.805,6.029,13.2971,4.59971,2470.194,2020-6-20T09:01:23Z
2020-06-20T07:03:41Z,42.805,6.029,13.2969,4.59971,2470.171,2020-6-20T09:04:26Z
2020-06-20T07:06:44Z,42.805,6.029,13.2967,4.59972,2470.18,2020-6-20T09:07:29Z
2020-06-20T07:09:48Z,42.805,6.029,13.2968,4.59970,2470.156,2020-6-20T09:10:32Z
2020-06-20T07:12:51Z,42.805,6.029,13.2969,4.59973,2470.156,2020-6-20T09:13:36Z
2020-06-20T07:15:54Z,42.805,6.029,13.2968,4.59971,2470.217,2020-6-20T09:16:39Z
2020-06-20T07:18:58Z,42.805,6.029,13.2967,4.59970,2470.171,2020-6-20T09:19:42Z
2020-06-20T07:22:01Z,42.805,6.029,13.2971,4.59971,2470.156,2020-6-20T09:22:46Z
2020-06-20T07:25:04Z,42.805,6.029,13.2967,4.59972,2470.156,2020-6-20T09:25:49Z
2020-06-20T07:28:07Z,42.805,6.029,13.2970,4.59970,2470.156,2020-6-20T09:28:52Z
2020-06-20T07:31:11Z,42.805,6.029,13.2966,4.59971,2470.156,2020-6-20T09:31:55Z
2020-06-20T07:34:14Z,42.805,6.029,13.2967,4.59970,2470.147,2020-6-20T09:34:59Z
2020-06-20T07:37:17Z,42.805,6.029,13.2968,4.59972,2470.133,2020-6-20T09:38:02Z
2020-06-20T07:40:20Z,42.805,6.029,13.2973,4.59970,2470.18,2020-6-20T09:41:05Z
2020-06-20T07:43:24Z,42.805,6.029,13.2967,4.59971,2470.194,2020-6-20T09:44:09Z
2020-06-20T07:46:27Z,42.805,6.029,13.2967,4.59971,2470.156,2020-6-20T09:47:12Z
2020-06-20T07:49:30Z,42.805,6.029,13.2970,4.59971,2470.194,2020-6-20T09:50:15Z
2020-06-20T07:52:34Z,42.805,6.029,13.2969,4.59970,2470.133,2020-6-20T09:53:18Z
2020-06-20T07:55:37Z,42.805,6.029,13.2969,4.59971,2470.133,2020-6-20T09:56:22Z
2020-06-20T07:58:40Z,42.805,6.029,13.2969,4.59971,2470.133,2020-6-20T09:59:25Z
2020-06-20T08:01:43Z,42.805,6.029,13.2968,4.59971,2470.147,2020-6-20T10:02:28Z
2020-06-20T08:04:47Z,42.805,6.029,13.2967,4.59971,2470.147,2020-6-20T10:05:31Z
2020-06-20T08:07:50Z,42.805,6.029,13.2972,4.59971,2470.11,2020-6-20T10:08:35Z
2020-06-20T08:10:53Z,42.805,6.029,13.2969,4.59970,2470.133,2020-6-20T10:11:38Z
2020-06-20T08:13:56Z,42.805,6.029,13.2969,4.59971,2470.156,2020-6-20T10:14:41Z
2020-06-20T08:17:00Z,42.805,6.029,13.2970,4.59970,2470.133,2020-6-20T10:17:44Z
2020-06-20T08:20:03Z,42.805,6.029,13.2969,4.59971,2470.11,2020-6-20T10:20:48Z
2020-06-20T08:23:06Z,42.805,6.029,13.2972,4.59971,2470.133,2020-6-20T10:23:51Z
2020-06-20T08:26:09Z,42.805,6.029,13.2971,4.59970,2470.133,2020-6-20T10:26:54Z
2020-06-20T08:29:13Z,42.805,6.029,13.2966,4.59970,2470.156,2020-6-20T10:29:57Z
2020-06-20T08:32:16Z,42.805,6.029,13.2968,4.59971,2470.11,2020-6-20T10:33:01Z
2020-06-20T08:35:19Z,42.805,6.029,13.2971,4.59970,2470.133,2020-6-20T10:36:04Z
2020-06-20T08:38:22Z,42.805,6.029,13.2968,4.59971,2470.147,2020-6-20T10:39:07Z
2020-06-20T08:41:26Z,42.805,6.029,13.2971,4.59971,2470.1,2020-6-20T10:42:10Z
2020-06-20T08:44:29Z,42.805,6.029,13.2971,4.59970,2470.156,2020-6-20T10:45:14Z
2020-06-20T08:47:32Z,42.805,6.029,13.2971,4.59972,2470.133,2020-6-20T10:48:17Z
2020-06-20T08:50:35Z,42.805,6.029,13.2970,4.59972,2470.087,2020-6-20T10:51:20Z
2020-06-20T08:53:39Z,42.805,6.029,13.2969,4.59971,2470.124,2020-6-20T10:54:23Z
2020-06-20T08:56:42Z,42.805,6.029,13.2969,4.59971,2470.147,2020-6-20T10:57:27Z
2020-06-20T08:59:45Z,42.805,6.029,13.2966,4.59970,2470.11,2020-6-20T11:00:30Z
2020-06-20T09:02:48Z,42.805,6.029,13.2969,4.59970,2470.147,2020-6-20T11:03:33Z
2020-06-20T09:05:52Z,42.805,6.029,13.2964,4.59971,2470.11,2020-6-20T11:06:36Z
2020-06-20T09:08:55Z,42.805,6.029,13.2967,4.59972,2470.087,2020-6-20T11:09:40Z
2020-06-20T09:11:58Z,42.805,6.029,13.2969,4.59971,2470.087,2020-6-20T11:12:43Z
2020-06-20T09:15:02Z,42.805,6.029,13.2970,4.59973,2470.133,2020-6-20T11:15:46Z
2020-06-20T09:18:05Z,42.805,6.029,13.2970,4.59971,2470.087,2020-6-20T11:18:50Z
2020-06-20T09:21:08Z,42.805,6.029,13.2969,4.59970,2470.11,2020-6-20T11:21:53Z
2020-06-20T09:24:11Z,42.805,6.029,13.2968,4.59971,2470.138,2020-6-20T11:24:56Z
2020-06-20T09:27:14Z,42.805,6.029,13.2971,4.59970,2470.1,2020-6-20T11:27:59Z
2020-06-20T09:30:18Z,42.805,6.029,13.2968,4.59969,2470.11,2020-6-20T11:31:02Z
2020-06-20T09:33:21Z,42.805,6.029,13.2971,4.59970,2470.077,2020-6-20T11:34:06Z
2020-06-20T09:36:24Z,42.805,6.029,13.2969,4.59970,2470.087,2020-6-20T11:37:09Z
2020-06-20T09:39:28Z,42.805,6.029,13.2969,4.59971,2470.1,2020-6-20T11:40:13Z
2020-06-20T09:42:31Z,42.805,6.029,13.2970,4.59970,2470.087,2020-6-20T11:43:16Z
2020-06-20T09:45:34Z,42.805,6.029,13.2969,4.59969,2470.087,2020-6-20T11:46:19Z
2020-06-20T09:48:38Z,42.805,6.029,13.2968,4.59969,2470.087,2020-6-20T11:49:23Z
2020-06-20T09:51:41Z,42.805,6.029,13.2970,4.59970,2470.063,2020-6-20T11:52:26Z
2020-06-20T09:54:44Z,42.805,6.029,13.2971,4.59970,2470.077,2020-6-20T11:55:29Z
2020-06-20T09:57:48Z,42.805,6.029,13.2967,4.59971,2470.087,2020-6-20T11:58:32Z
2020-06-20T10:00:51Z,42.805,6.029,13.2969,4.59970,2470.049,2020-6-20T12:01:36Z
2020-06-20T10:03:54Z,42.805,6.029,13.2967,4.59970,2470.087,2020-6-20T12:04:39Z
2020-06-20T10:06:57Z,42.805,6.029,13.2966,4.59970,2470.1,2020-6-20T12:07:42Z
2020-06-20T10:10:01Z,42.805,6.029,13.2971,4.59970,2470.087,2020-6-20T12:10:46Z
2020-06-20T10:13:04Z,42.805,6.029,13.2968,4.59969,2470.03,2020-6-20T12:13:49Z
2020-06-20T10:16:07Z,42.805,6.029,13.2967,4.59970,2470.053,2020-6-20T12:16:52Z
2020-06-20T10:19:10Z,42.805,6.029,13.2968,4.59969,2470.053,2020-6-20T12:19:55Z
2020-06-20T10:22:14Z,42.805,6.029,13.2970,4.59970,2470.053,2020-6-20T12:22:59Z
2020-06-20T10:25:17Z,42.805,6.029,13.2967,4.59969,2470.04,2020-6-20T12:26:02Z
2020-06-20T10:28:20Z,42.805,6.029,13.2964,4.59970,2470.003,2020-6-20T12:29:05Z
2020-06-20T10:31:24Z,42.805,6.029,13.2966,4.59971,2470.053,2020-6-20T12:32:08Z
2020-06-20T10:34:27Z,42.805,6.029,13.2967,4.59969,2470.063,2020-6-20T12:35:12Z
2020-06-20T10:37:30Z,42.805,6.029,13.2969,4.59969,2470.04,2020-6-20T12:38:15Z
2020-06-20T10:40:33Z,42.805,6.029,13.2969,4.59969,2470.04,2020-6-20T12:41:18Z
2020-06-20T10:43:37Z,42.805,6.029,13.2971,4.59970,2470.053,2020-6-20T12:44:21Z
2020-06-20T10:46:40Z,42.805,6.029,13.2967,4.59971,2470.053,2020-6-20T12:47:25Z
2020-06-20T10:49:43Z,42.805,6.029,13.2974,4.59969,2470.04,2020-6-20T12:50:28Z
2020-06-20T10:52:46Z,42.805,6.029,13.2974,4.59969,2470.077,2020-6-20T12:53:31Z
2020-06-20T10:55:50Z,42.805,6.029,13.2971,4.59969,2470.04,2020-6-20T12:56:35Z
2020-06-20T10:58:53Z,42.805,6.029,13.2970,4.59971,2470.04,2020-6-20T12:59:38Z
2020-06-20T11:01:56Z,42.805,6.029,13.2967,4.59969,2470.053,2020-6-20T13:02:41Z
2020-06-20T11:04:59Z,42.805,6.029,13.2965,4.59969,2470.026,2020-6-20T13:05:44Z
2020-06-20T11:08:03Z,42.805,6.029,13.2962,4.59970,2470.077,2020-6-20T13:08:47Z
2020-06-20T11:11:06Z,42.805,6.029,13.2967,4.59969,2470.03,2020-6-20T13:11:51Z
2020-06-20T11:14:09Z,42.805,6.029,13.2971,4.59969,2470.04,2020-6-20T13:14:54Z
2020-06-20T11:17:13Z,42.805,6.029,13.2968,4.59970,2470.04,2020-6-20T13:17:57Z
2020-06-20T11:20:16Z,42.805,6.029,13.2971,4.59969,2470.017,2020-6-20T13:21:01Z
2020-06-20T11:23:19Z,42.805,6.029,13.2968,4.59969,2470.017,2020-6-20T13:24:04Z
2020-06-20T11:26:22Z,42.805,6.029,13.2968,4.59969,2470.017,2020-6-20T13:27:07Z
2020-06-20T11:29:26Z,42.805,6.029,13.2969,4.59971,2470.017,2020-6-20T13:30:10Z
2020-06-20T11:32:29Z,42.805,6.029,13.2968,4.59970,2470.04,2020-6-20T13:33:14Z
2020-06-20T11:35:32Z,42.805,6.029,13.2968,4.59971,2470.053,2020-6-20T13:36:17Z
2020-06-20T11:38:35Z,42.805,6.029,13.2965,4.59972,2470.053,2020-6-20T13:39:20Z
2020-06-20T11:41:39Z,42.805,6.029,13.2970,4.59970,2470.017,2020-6-20T13:42:23Z
2020-06-20T11:44:42Z,42.805,6.029,13.2968,4.59971,2470.017,2020-6-20T13:45:27Z
2020-06-20T11:47:45Z,42.805,6.029,13.2968,4.59969,2470.017,2020-6-20T13:48:30Z
2020-06-20T11:50:49Z,42.805,6.029,13.2971,4.59971,2470.007,2020-6-20T13:51:33Z
2020-06-20T11:53:52Z,42.805,6.029,13.2968,4.59971,2470.053,2020-6-20T13:54:37Z
2020-06-20T11:56:55Z,42.805,6.029,13.2971,4.59971,2470.007,2020-6-20T13:57:40Z
2020-06-20T11:59:58Z,42.805,6.029,13.2972,4.59969,2470.017,2020-6-20T14:00:43Z
2020-06-20T12:03:02Z,42.805,6.029,13.2968,4.59969,2469.993,2020-6-20T14:03:46Z
2020-06-20T12:06:05Z,42.805,6.029,13.2968,4.59971,2470.007,2020-6-20T14:06:50Z
2020-06-20T12:09:08Z,42.805,6.029,13.2968,4.59971,2470.007,2020-6-20T14:09:53Z
2020-06-20T12:12:11Z,42.805,6.029,13.2971,4.59969,2470.04,2020-6-20T14:12:56Z
2020-06-20T12:15:15Z,42.805,6.029,13.2966,4.59971,2470.03,2020-6-20T14:15:59Z
2020-06-20T12:18:18Z,42.805,6.029,13.2968,4.59970,2470.017,2020-6-20T14:19:03Z
2020-06-20T12:21:21Z,42.805,6.029,13.2969,4.59971,2470.03,2020-6-20T14:22:06Z
2020-06-20T12:24:24Z,42.805,6.029,13.2968,4.59970,2469.984,2020-6-20T14:25:09Z
2020-06-20T12:27:28Z,42.805,6.029,13.2966,4.59971,2470.017,2020-6-20T14:28:12Z
2020-06-20T12:30:31Z,42.805,6.029,13.2969,4.59972,2469.97,2020-6-20T14:31:16Z
2020-06-20T12:33:34Z,42.805,6.029,13.2971,4.59973,2470.04,2020-6-20T14:34:19Z
2020-06-20T12:36:37Z,42.805,6.029,13.2970,4.59971,2469.993,2020-6-20T14:37:22Z
2020-06-20T12:39:41Z,42.805,6.029,13.2967,4.59970,2469.993,2020-6-20T14:40:25Z
2020-06-20T12:42:44Z,42.805,6.029,13.2972,4.59971,2470.007,2020-6-20T14:43:29Z
2020-06-20T12:45:47Z,42.805,6.029,13.2971,4.59972,2469.993,2020-6-20T14:46:32Z
2020-06-20T12:48:50Z,42.805,6.029,13.2973,4.59969,2470.007,2020-6-20T14:49:35Z
2020-06-20T12:51:54Z,42.805,6.029,13.2967,4.59970,2470.017,2020-6-20T14:52:38Z
2020-06-20T12:54:57Z,42.805,6.029,13.2968,4.59970,2470.017,2020-6-20T14:55:42Z
2020-06-20T12:58:01Z,42.805,6.029,13.2971,4.59972,2470.017,2020-6-20T14:58:45Z
2020-06-20T13:01:04Z,42.805,6.029,13.2970,4.59971,2469.993,2020-6-20T15:01:49Z
2020-06-20T13:04:07Z,42.805,6.029,13.2970,4.59971,2469.993,2020-6-20T15:04:52Z
2020-06-20T13:07:10Z,42.805,6.029,13.2974,4.59970,2470.03,2020-6-20T15:07:55Z
2020-06-20T13:10:13Z,42.805,6.029,13.2969,4.59971,2469.993,2020-6-20T15:10:58Z
2020-06-20T13:13:17Z,42.805,6.029,13.2971,4.59970,2470.007,2020-6-20T15:14:02Z
2020-06-20T13:16:20Z,42.805,6.029,13.2970,4.59970,2470.007,2020-6-20T15:17:05Z
2020-06-20T13:19:23Z,42.805,6.029,13.2971,4.59972,2469.97,2020-6-20T15:20:08Z
2020-06-20T13:22:27Z,42.805,6.029,13.2970,4.59971,2470.017,2020-6-20T15:23:11Z
2020-06-20T13:25:30Z,42.805,6.029,13.2965,4.59973,2469.97,2020-6-20T15:26:14Z
2020-06-20T13:28:33Z,42.805,6.029,13.2971,4.59972,2469.993,2020-6-20T15:29:18Z
2020-06-20T13:31:36Z,42.805,6.029,13.2971,4.59973,2469.993,2020-6-20T15:32:21Z
2020-06-20T13:34:39Z,42.805,6.029,13.2971,4.59971,2470.017,2020-6-20T15:35:24Z
2020-06-20T13:37:43Z,42.805,6.029,13.2968,4.59971,2470.007,2020-6-20T15:38:27Z
2020-06-20T13:40:46Z,42.805,6.029,13.2968,4.59970,2469.97,2020-6-20T15:41:31Z
2020-06-20T13:43:49Z,42.805,6.029,13.2971,4.59972,2469.97,2020-6-20T15:44:34Z
2020-06-20T13:46:53Z,42.805,6.029,13.2968,4.59971,2470.053,2020-6-20T15:47:37Z
2020-06-20T13:49:56Z,42.805,6.029,13.2968,4.59971,2469.993,2020-6-20T15:50:41Z
2020-06-20T13:52:59Z,42.805,6.029,13.2973,4.59972,2469.97,2020-6-20T15:53:44Z
2020-06-20T13:56:02Z,42.805,6.029,13.2967,4.59971,2469.993,2020-6-20T15:56:47Z
2020-06-20T13:59:06Z,42.805,6.029,13.2968,4.59972,2469.993,2020-6-20T15:59:50Z
2020-06-20T14:02:09Z,42.805,6.029,13.2971,4.59971,2470.017,2020-6-20T16:02:54Z
2020-06-20T14:05:12Z,42.805,6.029,13.2970,4.59973,2469.993,2020-6-20T16:05:57Z
2020-06-20T14:08:15Z,42.805,6.029,13.2967,4.59972,2470.03,2020-6-20T16:09:00Z
2020-06-20T14:11:19Z,42.805,6.029,13.2970,4.59970,2470.017,2020-6-20T16:12:03Z
2020-06-20T14:14:22Z,42.805,6.029,13.2970,4.59973,2470.007,2020-6-20T16:15:07Z
2020-06-20T14:17:25Z,42.805,6.029,13.2971,4.59971,2469.993,2020-6-20T16:18:10Z
2020-06-20T14:20:28Z,42.805,6.029,13.2971,4.59971,2470.017,2020-6-20T16:21:13Z
2020-06-20T14:23:32Z,42.805,6.029,13.2967,4.59971,2470.003,2020-6-20T16:24:16Z
2020-06-20T14:26:35Z,42.805,6.029,13.2971,4.59971,2470.03,2020-6-20T16:27:20Z
2020-06-20T14:29:38Z,42.805,6.029,13.2968,4.59970,2470.017,2020-6-20T16:30:23Z
2020-06-20T14:32:42Z,42.805,6.029,13.2970,4.59971,2470.017,2020-6-20T16:33:26Z
2020-06-20T14:35:45Z,42.805,6.029,13.2971,4.59971,2470.04,2020-6-20T16:36:30Z
2020-06-20T14:38:48Z,42.805,6.029,13.2970,4.59972,2470.017,2020-6-20T16:39:33Z
2020-06-20T14:41:51Z,42.805,6.029,13.2967,4.59973,2470.03,2020-6-20T16:42:36Z
2020-06-20T14:44:54Z,42.805,6.029,13.2967,4.59971,2469.993,2020-6-20T16:45:39Z
2020-06-20T14:47:58Z,42.805,6.029,13.2969,4.59971,2470.053,2020-6-20T16:48:42Z
2020-06-20T14:51:01Z,42.805,6.029,13.2969,4.59972,2470.017,2020-6-20T16:51:46Z
2020-06-20T14:54:04Z,42.805,6.029,13.2970,4.59970,2470.04,2020-6-20T16:54:49Z
2020-06-20T14:57:08Z,42.805,6.029,13.2966,4.59972,2470.053,2020-6-20T16:57:52Z
2020-06-20T15:00:11Z,42.805,6.029,13.2968,4.59970,2470.04,2020-6-20T17:00:56Z
2020-06-20T15:03:14Z,42.805,6.029,13.2970,4.59972,2470.04,2020-6-20T17:03:59Z
2020-06-20T15:06:17Z,42.805,6.029,13.2970,4.59970,2470.04,2020-6-20T17:07:02Z
2020-06-20T15:09:20Z,42.805,6.029,13.2966,4.59971,2470.087,2020-6-20T17:10:05Z
2020-06-20T15:12:24Z,42.805,6.029,13.2968,4.59971,2470.063,2020-6-20T17:13:08Z
2020-06-20T15:15:27Z,42.805,6.029,13.2969,4.59973,2470.063,2020-6-20T17:16:12Z